Temp
83 82 85 83 86 67 78 80 70 75 86 80 71 72 77 77 72 67 79 76 80 88 90 93 95 95 95 96 98 98 97 99 99 98 98 96 97 96 94 91 90 87 92 91 93 95 96 95 95 94 92 92 91 91 90 88 88 88 88 87 88 88 88
86 91 88 85 86 86 82 73 77 86 89 85 73 64 68 67 62 67 77 73 75 74 69 89 90 89 93 95 95 98 96 99 98 99 98 98 99 99 95 96 94 93 93 93 97 97 97 96 96 95 92 94 93 92 91 89 88 87 89 89 90 89 88
82 86 86 82 85 88 79 80 92 76 66 64 72 69 58 60 59 63 71 75 76 77 75 84 84 86 89 92 94 95 96 97 97 98 99 99 100 100 97 94 94 95 96 96 96 97 98 97 95 95 95 96 95 94 94 93 90 91 91 93 92 90 90
79 83 79 65 75 84 87 87 80 87 81 72 66 69 69 68 61 63 65 72 69 82 83 86 86 88 89 92 93 94 96 97 97 98 100 100 99 99 99 96 94 95 95 96 96 98 99 98 97 97 98 97 97 96 94 94 94 92 91 92 91 90 92
77 68 76 71 74 73 74 76 75 78 77 85 81 78 71 66 63 64 65 64 71 82 91 90 90 91 91 92 92 93 95 98 99 100 100 99 99 99 97 96 96 95 94 94 97 98 100 101 99 99 99 97 98 97 96 96 93 93 93 94 93 91 91
69 70 81 79 79 80 79 76 73 77 72 68 65 62 79 74 67 59 64 63 76 90 95 92 92 94 95 95 94 94 96 99 99 100 101 101 100 100 100 98 100 99 96 96 98 96 97 99 99 99 99 99 99 97 97 97 97 95 95 95 92 91 92
67 75 80 85 84 83 81 80 76 80 79 76 68 57 66 74 74 77 73 68 72 89 94 94 94 96 97 97 97 96 97 98 100 101 104 103 102 102 103 101 99 97 96 95 96 93 92 95 98 99 99 99 99 99 99 98 97 96 98 97 96 92 92
69 73 77 78 78 79 78 80 79 77 75 76 71 71 75 71 74 68 69 63 73 89 91 92 95 96 99 98 98 97 100 100 100 101 102 101 100 101 104 102 102 100 99 96 92 94 92 95 96 97 98 98 99 99 99 99 99 99 99 99 98 94 93
58 64 70 72 78 77 73 73 77 79 79 80 80 78 77 67 73 74 68 59 70 86 89 92 94 95 96 97 99 99 97 99 101 102 102 102 99 99 101 99 97 97 98 93 91 93 92 94 99 97 98 98 100 99 100 100 100 101 100 99 99 96 95
44 46 49 53 60 67 73 75 75 77 76 76 74 67 67 60 66 66 66 68 77 88 90 88 89 91 92 96 98 99 100 99 100 102 102 99 100 98 97 98 98 96 91 91 91 91 93 97 99 96 96 99 100 100 100 101 101 101 101 101 100 97 96
52 55 52 61 63 63 61 68 73 75 78 79 77 73 67 63 67 66 68 70 73 79 87 87 90 89 90 92 94 96 97 98 99 99 99 102 99 97 96 96 98 93 91 92 93 94 98 99 100 99 99 99 100 98 99 102 102 101 100 100 98 98 97
56 60 59 63 63 59 63 63 64 70 72 75 71 66 64 72 68 59 70 74 72 73 82 85 85 89 90 93 94 95 96 97 98 99 94 93 99 100 98 97 94 92 93 95 95 95 97 98 99 100 100 100 100 98 99 100 102 102 101 99 98 96 95
60 63 63 65 64 63 63 64 65 66 69 66 70 70 71 70 64 63 71 73 70 76 82 86 85 85 88 90 90 92 96 98 95 94 96 98 100 99 98 92 91 94 93 93 95 96 96 98 98 99 100 100 99 99 99 100 103 102 100 99 97 98 95
59 61 63 65 63 63 64 64 65 66 67 66 68 71 73 73 68 71 73 71 74 80 83 85 79 85 88 89 91 93 93 94 91 94 94 98 100 101 99 97 97 96 96 96 95 95 94 96 96 100 99 97 99 99 99 101 100 102 100 98 96 97 96
55 60 62 63 63 62 59 63 65 66 67 68 69 70 72 72 71 74 73 71 71 81 83 83 83 85 89 88 90 91 89 90 92 91 93 95 94 97 96 97 98 97 96 97 95 94 93 94 96 97 98 98 100 102 101 102 100 102 102 97 97 97 95
51 58 59 60 62 61 60 60 63 65 65 64 68 67 71 69 65 67 71 67 69 78 83 86 84 83 84 84 85 87 88 88 87 88 90 91 90 91 93 94 94 94 96 97 96 95 96 97 97 98 96 99 100 101 101 102 102 104 102 99 98 94 95
49 56 60 59 60 59 54 56 62 66 67 69 71 71 72 73 74 69 63 66 76 79 82 79 78 83 83 84 84 83 84 84 87 87 88 90 92 91 91 91 92 96 98 98 96 98 99 98 98 100 99 100 98 99 99 101 102 103 102 100 96 94 96
50 57 58 59 52 43 47 67 72 70 68 69 66 67 72 74 75 74 77 77 78 81 81 74 75 76 77 78 81 85 84 84 85 89 90 91 91 92 92 93 91 91 92 95 96 100 98 98 102 102 101 101 100 101 102 101 101 99 98 98 96 95 94
47 55 54 48 41 44 63 72 75 76 74 73 71 71 73 75 77 77 77 79 78 77 76 74 75 76 79 82 83 86 88 87 87 86 89 90 90 88 88 88 91 91 90 90 92 94 99 102 100 101 101 102 101 102 102 101 100 97 98 97 96 95 94
50 48 48 33 41 58 66 69 72 76 78 76 72 69 73 75 77 77 74 74 78 76 74 75 77 77 80 82 83 85 89 85 84 84 84 86 87 87 88 88 89 90 93 93 95 95 96 100 105 103 103 103 103 102 104 102 101 100 98 96 96 95 93
41 46 47 48 56 57 61 62 64 64 58 63 60 53 65 77 76 71 70 70 72 72 73 74 76 77 79 78 80 89 83 81 82 83 83 84 86 87 88 91 93 92 92 93 95 94 96 98 101 105 105 105 104 103 102 102 100 101 98 95 95 93 93
51 45 44 45 45 39 53 57 60 67 68 64 62 58 54 69 74 73 68 66 67 68 70 70 70 75 71 70 78 78 79 79 79 80 82 84 85 87 89 90 92 93 93 94 96 97 98 97 99 103 105 104 102 100 100 102 100 100 99 95 94 92 92
48 45 41 40 37 46 53 55 60 64 66 63 62 56 48 58 63 69 68 67 66 65 65 65 68 69 68 72 77 71 76 75 77 76 78 81 84 85 86 89 91 94 93 93 94 94 96 98 99 101 104 104 104 99 98 102 100 98 96 95 94 93 93
48 47 42 40 48 46 53 58 61 65 66 66 56 41 43 52 62 66 67 65 64 62 62 65 66 67 66 72 69 72 74 74 75 75 75 77 79 83 86 89 93 92 90 90 91 94 96 97 100 101 105 103 99 98 99 102 100 97 96 95 95 95 94
47 44 47 51 52 59 57 60 64 65 65 59 44 39 46 55 59 63 63 63 62 60 60 63 60 65 65 65 68 72 72 71 72 74 76 77 80 81 85 89 87 91 91 92 93 96 96 97 101 103 104 102 98 96 97 97 97 99 98 96 95 94 93
46 49 45 46 52 55 56 63 63 65 57 44 42 48 52 55 58 62 64 61 60 60 59 60 60 62 66 67 68 68 68 67 68 71 73 75 78 81 81 85 87 90 93 92 93 97 98 99 101 102 101 97 94 94 95 96 97 100 98 95 94 94 92
50 49 46 43 36 51 57 60 61 62 51 45 48 53 57 60 59 60 61 61 60 61 59 62 62 64 64 64 64 64 64 65 66 67 69 70 73 75 77 85 91 93 92 92 95 97 100 102 102 101 102 95 94 93 93 94 99 99 97 96 94 93 91
45 45 41 42 49 52 61 58 49 54 56 58 57 55 53 56 58 60 60 61 61 61 61 61 62 63 62 61 61 61 62 63 64 65 66 68 71 74 79 88 89 92 90 92 94 97 99 99 100 99 99 93 92 92 92 95 98 97 96 94 92 91 91
45 47 49 51 56 58 60 62 60 59 60 61 60 58 56 54 56 59 60 60 61 62 62 62 63 62 60 59 60 59 59 60 60 60 63 65 69 71 77 86 87 87 89 90 94 96 97 98 98 97 98 94 92 91 93 95 95 95 93 92 91 91 91
56 57 57 60 60 60 61 63 64 62 62 64 62 59 56 59 59 57 57 59 60 61 62 62 63 61 59 58 59 60 59 58 58 59 62 65 69 69 78 82 83 85 89 92 89 88 94 98 97 95 97 96 91 91 95 94 95 95 93 91 90 90 91
44 42 57 55 55 57 60 61 63 63 62 60 60 59 59 59 59 58 59 60 60 61 62 62 61 60 60 58 58 58 57 56 56 58 61 64 65 66 74 78 80 85 85 87 86 87 90 95 97 98 97 97 95 93 93 96 97 94 92 90 89 89 90
43 45 53 54 58 58 61 61 57 57 58 58 60 62 62 61 61 60 58 60 60 63 62 63 61 60 61 57 55 55 56 55 56 57 59 61 62 69 73 76 79 82 83 83 83 84 84 85 87 95 96 95 95 94 97 97 98 93 90 89 90 90 91
43 48 50 51 53 57 58 57 58 56 56 57 59 61 62 62 61 61 61 61 61 63 63 64 62 60 60 58 56 56 56 56 56 56 58 60 63 70 71 73 76 78 80 81 81 81 82 85 86 86 91 94 94 93 94 95 94 91 89 88 89 90 91
40 39 42 46 40 44 52 56 56 56 58 59 59 60 60 61 61 61 60 60 62 62 64 63 62 59 58 58 58 57 57 56 56 57 59 61 65 70 72 73 74 76 78 80 80 80 82 84 85 85 85 86 91 94 93 94 92 90 88 89 90 90 91
38 45 47 48 47 48 52 54 55 57 59 58 57 57 59 61 62 62 60 59 60 62 63 64 61 59 57 57 59 59 59 58 57 58 60 60 63 67 71 71 72 72 74 77 79 80 81 83 84 84 84 85 86 87 91 93 91 90 89 88 90 91 91
46 49 49 50 47 45 50 54 55 56 57 56 56 58 60 61 62 62 61 60 59 60 62 62 62 59 58 59 60 59 60 59 57 58 60 62 65 66 70 70 71 72 73 74 75 77 79 80 80 81 83 84 84 87 88 90 91 90 89 89 89 91 92
41 47 50 50 49 50 53 55 56 56 56 56 55 57 60 59 61 63 61 60 61 60 61 61 63 62 59 60 61 61 60 59 59 59 61 61 65 64 67 70 71 71 72 74 75 77 78 79 79 79 80 81 83 85 87 90 90 90 89 89 90 91 91
MSLP
1004.32 1005.04 1004.84 1005.40 1004.88 1009.96 1005.76 1006.24 1008.68 1007.20 1004.76 1006.32 1008.20 1007.48 1005.76 1005.56 1006.56 1007.48 1003.88 1005.12 1004.12 1001.84 1001.20 1000.60 999.96 1000.08 1000.12 1000.00 999.96 1000.28 1000.44 999.76 999.68 1000.64 1001.12 1002.16 1002.16 1002.52 1003.28 1004.24 1005.04 1006.04 1005.96 1005.64 1004.92 1004.48 1004.80 1005.24 1005.68 1006.04 1006.52 1006.88 1007.44 1008.04 1008.76 1009.48 1009.88 1010.12 1010.52 1010.88 1011.16 1011.52 1011.96
1003.48 1002.48 1003.60 1004.72 1004.56 1004.24 1004.76 1007.20 1006.12 1004.28 1003.68 1004.56 1007.56 1010.40 1008.24 1009.12 1010.12 1007.72 1004.68 1005.84 1005.36 1006.04 1007.24 1001.12 1001.48 1001.80 1000.76 1000.36 1000.36 1000.20 1000.24 999.68 1000.08 1000.20 1000.52 1000.76 1001.00 1001.24 1002.20 1002.68 1003.24 1004.04 1004.84 1005.04 1004.12 1003.80 1004.08 1004.52 1004.88 1005.40 1005.96 1006.24 1006.76 1007.36 1008.00 1008.84 1009.44 1009.96 1010.08 1010.36 1010.72 1011.12 1011.64
1004.80 1004.00 1003.76 1004.88 1004.08 1003.64 1005.32 1004.60 1001.60 1006.68 1009.36 1010.64 1007.48 1009.00 1011.88 1011.04 1010.80 1009.24 1006.60 1005.32 1004.40 1004.32 1005.32 1002.56 1002.76 1002.56 1001.88 1000.80 1000.24 1000.32 1000.48 1000.32 1000.24 1000.16 1000.12 999.96 1000.12 1000.48 1001.24 1002.48 1003.20 1003.72 1004.32 1004.36 1003.80 1003.48 1003.48 1003.76 1004.20 1004.68 1005.16 1005.68 1006.28 1006.88 1007.36 1007.96 1008.64 1008.92 1009.24 1009.56 1010.00 1010.48 1010.92
1005.72 1004.64 1006.08 1009.40 1006.68 1004.44 1003.68 1003.36 1004.52 1002.60 1004.80 1006.96 1009.28 1008.04 1007.68 1008.04 1009.56 1009.36 1007.92 1006.24 1006.96 1002.56 1002.24 1001.68 1001.60 1001.24 1001.04 1000.76 1000.32 1000.32 999.88 999.84 999.92 999.64 999.52 999.72 1000.00 1000.24 1000.72 1001.72 1002.52 1002.96 1003.72 1004.28 1004.48 1003.60 1003.28 1003.48 1003.96 1004.24 1004.64 1005.12 1005.76 1006.28 1006.92 1007.48 1007.96 1008.44 1008.84 1009.24 1009.60 1010.16 1010.40
1006.76 1008.20 1006.32 1007.72 1006.80 1006.56 1006.28 1006.20 1005.92 1005.60 1005.48 1002.88 1004.28 1005.08 1007.04 1008.48 1009.28 1008.60 1008.04 1008.36 1005.72 1002.00 999.44 1000.12 999.92 999.48 999.84 1000.08 1000.24 999.76 999.40 998.92 998.84 998.84 998.84 999.08 999.44 999.84 1000.36 1001.16 1001.64 1002.32 1002.88 1003.64 1003.76 1003.56 1002.88 1002.64 1003.16 1003.60 1004.12 1004.68 1005.08 1005.60 1006.32 1006.80 1007.56 1008.00 1008.36 1008.56 1008.96 1009.48 1009.80
1008.08 1007.48 1004.88 1005.68 1005.76 1005.04 1004.84 1005.60 1006.40 1005.44 1007.00 1008.00 1008.56 1008.84 1004.56 1005.84 1007.68 1008.76 1008.80 1008.32 1003.08 998.84 997.20 998.80 999.12 998.48 998.72 998.76 999.28 999.52 999.04 998.48 997.88 997.88 998.04 998.12 998.72 999.16 999.52 1000.44 1000.92 1001.92 1002.28 1002.48 1002.56 1003.56 1003.68 1003.08 1003.16 1003.56 1003.60 1004.12 1004.64 1005.12 1005.40 1006.00 1006.56 1007.12 1007.60 1008.00 1008.36 1008.92 1009.24
1008.48 1006.36 1005.12 1004.20 1004.56 1004.76 1004.52 1004.12 1005.44 1004.32 1004.32 1004.92 1006.88 1009.36 1006.92 1005.60 1005.40 1004.96 1005.76 1007.32 1004.52 998.76 997.16 997.72 998.40 998.00 998.12 997.88 998.16 998.72 998.60 998.44 997.84 997.36 997.36 997.52 997.72 998.20 998.52 999.28 1000.40 1001.12 1001.48 1001.76 1002.16 1003.24 1004.00 1003.60 1002.88 1003.00 1003.20 1003.64 1004.00 1004.36 1004.76 1005.28 1005.80 1006.32 1006.48 1006.96 1007.48 1008.20 1008.76
1009.08 1007.52 1006.56 1006.16 1006.24 1005.72 1005.32 1004.40 1004.92 1005.44 1004.88 1004.72 1005.80 1005.56 1004.12 1005.12 1004.64 1007.08 1007.12 1008.64 1005.12 999.36 998.52 998.60 998.28 997.80 997.44 997.52 997.76 998.04 997.52 997.52 997.36 997.16 997.04 997.40 997.96 997.84 997.84 998.20 999.08 999.76 1000.44 1001.28 1002.28 1003.08 1003.72 1003.24 1002.76 1002.80 1002.84 1003.08 1003.36 1003.72 1004.12 1004.52 1005.12 1005.48 1005.88 1006.28 1006.88 1007.68 1008.28
1011.48 1009.80 1008.16 1007.52 1006.12 1006.24 1006.64 1006.00 1004.60 1004.56 1004.36 1003.64 1003.32 1003.92 1003.52 1006.24 1004.52 1004.76 1006.56 1009.16 1006.28 1000.60 999.12 998.60 998.36 998.52 998.52 998.08 997.52 997.56 998.00 997.36 997.00 996.80 996.84 996.92 997.52 997.76 998.16 998.92 999.68 999.92 1000.32 1001.44 1002.20 1002.56 1003.20 1002.88 1002.28 1002.52 1002.64 1002.80 1002.96 1003.32 1003.52 1003.92 1004.28 1004.56 1005.12 1005.48 1006.24 1007.08 1007.64
1014.24 1013.56 1012.48 1011.28 1009.88 1008.08 1006.72 1006.08 1005.88 1005.24 1005.24 1004.80 1005.00 1006.64 1006.12 1007.96 1006.40 1006.84 1006.24 1005.52 1003.04 999.72 998.72 1000.32 1000.56 1000.00 999.28 998.20 997.80 997.60 997.40 997.36 997.12 996.68 996.80 997.08 997.36 998.00 998.72 999.04 999.32 999.96 1000.68 1001.12 1001.56 1002.16 1002.24 1002.00 1001.92 1002.16 1002.32 1002.36 1002.44 1002.68 1002.92 1003.00 1003.60 1004.08 1004.56 1004.84 1005.48 1006.40 1007.08
1012.40 1010.72 1012.72 1011.40 1011.00 1010.60 1010.64 1007.72 1005.88 1005.08 1004.64 1004.16 1004.12 1004.84 1006.44 1007.60 1006.84 1007.00 1005.88 1005.04 1004.16 1002.44 1000.56 1000.68 1000.32 1000.64 1000.64 999.84 999.00 998.40 998.12 997.80 997.48 997.16 997.20 996.76 997.32 998.12 999.16 999.40 999.20 999.68 1000.48 1000.88 1001.04 1001.12 1001.28 1001.44 1001.32 1001.56 1001.84 1002.00 1002.04 1002.32 1002.64 1002.64 1002.92 1003.44 1003.88 1004.44 1005.04 1005.80 1006.48
1013.24 1012.08 1012.08 1011.12 1011.52 1012.16 1010.44 1009.88 1009.00 1006.84 1005.96 1005.04 1006.04 1007.40 1007.16 1004.68 1006.52 1008.64 1004.92 1003.80 1005.48 1004.64 1001.36 1001.16 1001.24 1000.48 1000.00 999.36 998.80 998.48 998.20 998.00 997.76 997.88 998.84 998.40 998.12 998.08 998.64 999.28 1000.04 1000.60 1000.44 1000.28 1000.56 1000.84 1001.04 1001.20 1001.04 1001.12 1001.36 1001.44 1001.60 1001.88 1002.32 1002.40 1002.52 1002.92 1003.36 1004.00 1004.68 1005.32 1006.00
1012.64 1011.88 1011.48 1010.96 1010.84 1010.96 1010.64 1010.04 1009.44 1008.48 1007.44 1007.60 1005.68 1005.88 1006.36 1006.40 1007.44 1007.24 1004.96 1004.44 1005.84 1003.88 1001.96 1000.68 1001.44 1001.48 1000.52 1000.52 1000.32 999.60 998.48 998.16 998.84 999.20 999.04 998.76 998.68 998.84 999.44 1000.20 1000.80 1000.24 1000.64 1000.56 1000.44 1000.72 1000.84 1000.80 1001.00 1001.00 1001.12 1001.36 1001.48 1001.68 1001.84 1002.00 1002.00 1002.32 1002.68 1003.48 1004.24 1004.92 1005.60
1012.52 1011.84 1011.32 1010.84 1011.08 1010.56 1010.24 1009.96 1009.48 1008.96 1008.56 1008.40 1007.16 1006.00 1005.68 1005.88 1006.52 1005.64 1005.20 1005.36 1004.64 1002.92 1002.32 1001.64 1003.44 1001.52 1001.20 1000.96 1000.08 999.40 999.48 999.72 999.96 999.80 999.76 999.24 998.80 998.52 998.92 999.36 999.56 999.60 999.56 999.72 1000.00 1000.32 1000.56 1000.56 1000.68 1000.72 1000.92 1001.16 1001.32 1001.52 1001.80 1001.84 1002.00 1002.00 1002.48 1003.24 1003.92 1004.48 1005.16
1013.20 1012.16 1011.60 1011.32 1011.16 1011.08 1011.24 1010.20 1009.84 1009.20 1008.36 1008.00 1007.48 1007.00 1006.20 1006.32 1005.84 1005.04 1005.16 1005.20 1005.20 1002.76 1002.12 1002.28 1002.52 1001.84 1001.24 1001.44 1000.96 1000.68 1001.04 1000.88 1000.48 1000.88 1000.76 999.92 999.92 999.24 999.16 998.92 999.08 999.28 999.56 999.52 999.92 1000.32 1000.56 1000.48 1000.40 1000.40 1000.48 1000.68 1000.84 1001.04 1001.28 1001.48 1001.72 1001.56 1002.00 1002.92 1003.52 1004.00 1004.60
1013.28 1012.20 1012.16 1011.40 1011.04 1011.00 1010.92 1010.44 1009.76 1009.16 1008.72 1008.44 1007.24 1007.72 1007.04 1007.44 1007.76 1006.72 1005.52 1006.12 1005.76 1003.24 1002.28 1001.84 1002.40 1002.60 1002.44 1002.52 1002.40 1001.68 1001.56 1001.88 1002.04 1002.00 1001.64 1001.40 1001.48 1001.12 1000.76 1000.40 1000.24 1000.12 999.76 999.64 999.84 1000.08 1000.16 1000.08 1000.08 1000.12 1000.28 1000.36 1000.60 1000.84 1000.84 1001.08 1001.20 1001.20 1001.76 1002.48 1003.12 1003.68 1004.08
1013.48 1012.40 1011.44 1011.36 1010.96 1011.00 1010.96 1010.20 1009.08 1008.44 1008.20 1007.60 1007.20 1007.04 1006.48 1006.20 1005.68 1006.28 1007.20 1006.40 1003.92 1003.08 1002.44 1003.84 1004.20 1003.12 1002.88 1003.04 1003.00 1003.16 1002.88 1002.64 1002.56 1002.64 1002.24 1001.76 1001.20 1001.16 1000.96 1001.08 1000.80 1000.16 999.60 999.32 999.40 999.40 999.40 999.52 999.60 999.52 999.60 1000.00 1000.36 1000.28 1000.44 1000.52 1000.64 1001.08 1001.56 1002.16 1002.92 1003.60 1003.88
1013.04 1011.84 1011.36 1011.32 1012.60 1013.32 1011.12 1007.28 1006.44 1006.88 1007.72 1007.52 1008.20 1007.44 1006.12 1005.48 1005.36 1005.16 1004.08 1003.88 1003.40 1003.20 1003.36 1005.40 1005.04 1004.72 1004.12 1003.96 1003.36 1002.68 1002.76 1002.76 1002.52 1001.92 1001.52 1001.40 1001.48 1001.28 1001.00 1001.04 1001.40 1000.92 1000.16 999.60 999.36 998.72 998.84 998.88 998.76 998.64 998.76 999.32 999.52 999.52 999.68 1000.00 1000.52 1000.88 1001.36 1001.92 1002.56 1003.24 1003.60
1014.20 1012.36 1012.52 1013.20 1013.52 1012.56 1008.64 1006.24 1005.52 1005.44 1005.88 1006.04 1006.44 1006.08 1005.64 1005.28 1004.52 1004.44 1004.28 1003.76 1004.04 1004.48 1005.12 1005.56 1005.08 1004.56 1003.68 1002.76 1002.72 1002.48 1002.16 1002.00 1002.00 1002.04 1001.44 1001.12 1001.12 1001.84 1002.16 1001.96 1001.24 1000.68 1000.72 1000.40 999.88 999.44 998.64 998.44 998.44 998.32 998.64 998.72 999.08 999.48 999.60 1000.08 1000.32 1000.84 1001.16 1001.68 1002.32 1002.92 1003.44
1014.32 1014.00 1013.36 1015.04 1013.00 1009.68 1008.12 1007.08 1006.32 1005.28 1004.64 1004.96 1005.88 1005.88 1005.20 1004.80 1004.20 1004.16 1005.16 1005.12 1004.28 1004.96 1005.68 1005.36 1004.92 1004.72 1003.80 1003.00 1002.36 1002.16 1001.72 1002.40 1002.80 1002.76 1002.72 1002.24 1002.00 1002.28 1001.96 1001.64 1001.04 1000.64 1000.20 999.88 999.60 999.24 998.52 998.12 997.60 998.00 998.16 998.08 998.60 999.08 998.96 999.52 1000.04 1000.48 1001.00 1001.60 1002.12 1002.60 1003.16
1015.08 1013.84 1013.16 1012.12 1010.40 1009.72 1008.68 1008.08 1007.76 1008.08 1009.52 1008.48 1008.60 1009.80 1006.56 1003.64 1004.68 1005.96 1006.52 1006.56 1005.96 1006.24 1006.16 1005.88 1005.44 1005.00 1004.48 1004.24 1003.44 1001.88 1003.08 1003.44 1003.24 1003.16 1003.00 1002.60 1002.20 1001.80 1001.36 1000.68 1000.20 999.80 999.64 999.52 999.04 998.64 998.44 998.16 997.64 997.32 997.20 997.44 998.04 998.56 999.04 999.24 999.76 1000.20 1000.72 1001.44 1001.84 1002.32 1002.76
1013.32 1013.68 1013.20 1012.52 1012.08 1012.56 1009.12 1009.68 1009.48 1008.20 1008.40 1009.12 1009.08 1009.80 1010.20 1006.52 1005.48 1005.88 1006.96 1007.36 1007.20 1007.32 1007.12 1006.92 1006.68 1005.80 1006.48 1006.24 1004.20 1003.96 1003.92 1003.96 1003.84 1003.56 1003.04 1002.48 1002.00 1001.44 1000.92 1000.20 999.68 999.28 998.96 998.64 998.12 997.88 997.76 997.76 997.44 996.60 996.44 996.88 997.56 998.28 998.80 998.92 999.52 1000.00 1000.44 1001.08 1001.32 1001.84 1002.32
1013.40 1013.48 1014.00 1013.60 1013.24 1010.80 1010.28 1010.40 1009.88 1009.16 1008.80 1009.88 1009.68 1010.20 1011.24 1009.36 1008.32 1007.04 1007.44 1007.40 1007.72 1008.16 1008.40 1008.36 1007.60 1007.04 1006.68 1005.40 1003.88 1005.44 1004.76 1004.72 1004.36 1004.16 1003.56 1002.92 1002.16 1001.60 1001.00 1000.40 999.68 998.92 998.64 998.40 998.20 997.88 997.40 997.40 997.00 996.40 996.12 996.56 997.20 998.08 998.40 998.56 999.04 999.72 1000.08 1000.40 1000.72 1001.28 1001.68
1012.96 1012.88 1013.08 1013.00 1011.48 1010.88 1010.76 1010.16 1009.92 1009.28 1009.32 1009.00 1010.88 1012.68 1011.08 1010.64 1009.08 1008.32 1008.12 1008.16 1008.32 1008.84 1009.20 1008.72 1008.00 1007.32 1006.88 1005.24 1005.64 1005.88 1005.52 1005.32 1004.92 1004.52 1004.04 1003.32 1002.52 1001.68 1000.84 999.96 998.92 998.44 998.28 998.32 998.24 997.84 997.32 996.88 996.36 996.08 995.84 996.32 997.04 997.72 998.08 998.08 998.76 999.36 999.48 999.64 999.84 1000.36 1001.04
1012.96 1013.36 1012.28 1010.92 1010.24 1009.08 1010.56 1009.92 1009.44 1009.28 1009.28 1010.24 1012.52 1012.08 1011.48 1010.72 1010.12 1009.56 1009.40 1009.24 1009.32 1009.84 1009.80 1009.16 1009.12 1008.12 1008.20 1007.80 1006.96 1006.36 1006.12 1005.76 1005.20 1004.56 1003.96 1003.36 1002.52 1001.88 1000.88 999.68 998.76 998.56 998.24 997.96 997.68 997.16 996.56 996.16 995.96 995.60 995.52 996.16 996.92 997.40 997.72 998.08 998.48 998.44 998.48 998.92 999.64 1000.24 1000.72
1012.64 1011.88 1012.40 1011.40 1010.00 1010.44 1011.16 1009.52 1009.56 1009.36 1010.32 1012.08 1011.72 1012.20 1012.84 1011.80 1010.68 1010.00 1009.56 1009.96 1010.24 1010.36 1010.08 1009.84 1009.64 1009.16 1008.52 1008.16 1007.64 1007.20 1006.96 1006.64 1005.96 1005.20 1004.44 1003.60 1002.60 1001.72 1000.72 999.40 998.96 998.60 997.96 997.56 997.12 996.40 995.84 995.68 995.48 995.32 995.44 996.20 996.80 997.28 997.76 998.04 997.72 997.44 998.00 998.76 999.36 999.88 1000.48
1012.04 1011.96 1011.56 1012.20 1013.00 1011.08 1011.24 1010.28 1009.64 1010.08 1011.40 1012.56 1013.44 1012.40 1011.68 1011.00 1010.56 1010.52 1010.24 1010.24 1010.44 1010.28 1010.24 1009.72 1009.60 1009.12 1008.88 1008.68 1008.36 1008.00 1007.52 1007.00 1006.48 1005.80 1005.08 1004.28 1003.48 1002.64 1001.56 999.80 998.56 998.00 997.80 997.48 996.88 996.16 995.44 995.00 994.92 995.04 995.16 996.08 996.68 997.08 997.68 997.44 996.96 997.32 997.80 998.44 999.16 999.76 1000.28
1011.88 1011.92 1012.12 1011.64 1011.92 1012.64 1010.76 1011.00 1012.20 1011.48 1011.60 1011.52 1011.92 1012.08 1011.88 1011.84 1011.16 1010.68 1010.68 1010.36 1010.60 1010.48 1010.24 1009.88 1009.60 1009.32 1009.28 1008.96 1008.64 1008.24 1007.72 1007.24 1006.80 1006.12 1005.36 1004.60 1003.64 1002.68 1001.12 999.52 998.92 998.12 997.88 997.32 996.60 995.76 995.32 994.84 994.84 994.96 995.04 996.08 996.60 997.12 997.40 996.96 997.00 997.28 997.80 998.48 999.12 999.72 1000.24
1013.12 1010.96 1011.20 1012.00 1011.56 1011.44 1011.24 1010.56 1011.04 1011.16 1011.24 1011.24 1011.44 1011.72 1011.92 1011.96 1011.72 1011.28 1011.00 1010.72 1010.52 1010.40 1010.12 1009.68 1009.28 1009.36 1009.52 1009.40 1009.04 1008.64 1008.20 1007.76 1007.40 1006.80 1005.96 1005.08 1004.04 1003.12 1001.56 999.96 999.08 998.76 998.20 997.40 996.52 995.88 995.28 994.84 994.84 994.88 994.88 995.88 996.68 997.28 997.08 996.96 997.28 997.52 998.04 998.64 999.24 999.72 1000.08
1012.16 1011.64 1011.40 1010.76 1010.76 1010.76 1010.56 1010.76 1010.52 1010.80 1010.92 1010.68 1010.96 1011.40 1011.68 1011.44 1011.52 1011.76 1011.76 1011.24 1010.80 1010.40 1009.88 1009.60 1009.28 1009.60 1009.76 1009.52 1009.04 1008.60 1008.36 1008.08 1007.56 1006.92 1005.96 1004.80 1003.76 1002.96 1001.20 1000.12 999.60 998.92 997.76 997.08 997.24 996.96 995.48 995.00 995.04 995.08 995.12 995.68 996.88 997.04 996.76 997.00 997.16 997.56 998.20 998.88 999.44 999.68 999.92
1014.36 1013.12 1011.20 1012.20 1012.12 1011.88 1011.28 1011.12 1010.68 1010.68 1011.00 1011.16 1011.28 1011.36 1011.44 1011.44 1011.40 1011.60 1011.48 1011.12 1010.84 1010.36 1009.80 1009.44 1009.40 1009.56 1009.56 1009.48 1009.24 1008.96 1008.64 1008.28 1007.76 1007.16 1006.28 1005.12 1004.20 1003.24 1001.72 1000.72 999.80 998.96 998.40 997.92 997.88 997.44 996.44 995.52 995.32 995.36 995.44 995.60 996.16 996.52 996.88 996.92 997.08 997.52 998.32 998.92 999.40 999.60 999.84
1014.80 1013.20 1012.52 1012.60 1012.20 1011.92 1011.32 1011.28 1011.80 1011.68 1011.64 1011.64 1011.24 1010.96 1010.92 1011.00 1011.04 1011.16 1011.40 1011.04 1010.60 1010.08 1009.76 1009.36 1009.36 1009.64 1009.40 1009.60 1009.44 1009.12 1008.80 1008.48 1007.88 1007.08 1006.24 1005.32 1004.28 1002.64 1001.60 1000.80 1000.00 999.32 999.00 998.68 998.56 998.16 997.88 997.44 996.68 995.60 995.60 995.88 996.20 996.44 996.56 996.72 996.96 997.72 998.52 998.96 999.32 999.52 999.60
1014.88 1014.08 1013.56 1013.56 1012.96 1011.64 1011.32 1012.04 1012.04 1012.28 1012.12 1011.68 1011.40 1011.00 1010.84 1010.64 1010.64 1010.64 1010.84 1010.84 1010.36 1010.04 1009.76 1009.32 1009.44 1009.68 1009.52 1009.60 1009.44 1009.28 1008.80 1008.36 1007.72 1007.00 1006.20 1005.20 1004.08 1002.64 1002.00 1001.24 1000.52 1000.08 999.64 999.28 998.92 998.76 998.56 997.64 997.12 996.88 996.32 996.08 996.24 996.48 996.52 996.64 996.88 997.96 998.64 999.00 999.12 999.28 999.36
1015.04 1015.56 1015.24 1015.12 1015.16 1013.36 1012.20 1011.92 1012.12 1012.12 1011.88 1011.60 1011.32 1011.04 1010.76 1010.52 1010.40 1010.36 1010.56 1010.48 1010.16 1010.08 1009.52 1009.40 1009.52 1009.80 1009.72 1009.48 1009.32 1009.00 1008.56 1008.16 1007.64 1007.00 1006.12 1005.12 1004.00 1002.88 1002.16 1001.56 1000.96 1000.44 1000.00 999.48 999.24 998.96 998.48 997.96 997.68 997.68 997.60 997.16 996.52 996.36 996.56 996.60 997.12 998.04 998.64 998.88 999.04 999.16 999.16
1016.00 1015.24 1015.16 1015.12 1015.08 1014.36 1013.00 1012.64 1012.48 1012.24 1011.76 1011.64 1011.48 1011.12 1010.68 1010.32 1010.16 1010.04 1010.28 1010.32 1010.04 1009.76 1009.32 1009.24 1009.52 1009.80 1009.88 1009.44 1009.08 1008.76 1008.36 1008.04 1007.60 1006.96 1006.08 1005.44 1004.48 1003.56 1002.60 1002.16 1001.56 1001.08 1000.60 999.96 999.32 999.00 998.68 998.32 998.16 998.16 998.00 997.72 997.60 997.40 997.00 996.68 997.20 997.80 998.24 998.68 998.76 998.84 999.00
1016.28 1015.72 1015.52 1015.12 1015.12 1014.64 1013.60 1012.92 1012.48 1012.28 1012.00 1011.84 1011.60 1011.08 1010.56 1010.16 1009.88 1009.76 1009.80 1009.92 1009.92 1009.72 1009.48 1009.44 1009.40 1009.68 1009.68 1009.32 1009.00 1008.72 1008.20 1007.88 1007.40 1006.80 1006.04 1005.36 1004.56 1003.84 1003.00 1002.60 1002.04 1001.52 1001.08 1000.72 1000.32 999.88 999.24 998.92 998.84 998.64 998.48 998.24 998.12 997.72 997.52 997.36 997.28 997.60 997.96 998.32 998.64 998.52 998.68
1017.32 1016.16 1015.64 1015.16 1014.72 1014.24 1013.48 1012.80 1012.40 1012.12 1012.04 1011.92 1011.68 1011.08 1010.40 1010.28 1009.96 1009.48 1009.52 1009.72 1009.72 1009.72 1009.60 1009.56 1009.20 1009.20 1009.40 1009.12 1008.72 1008.32 1008.00 1007.64 1007.32 1006.84 1006.24 1005.68 1004.92 1004.44 1003.76 1002.84 1002.40 1001.96 1001.56 1001.08 1000.56 1000.12 999.84 999.72 999.60 999.36 999.32 999.04 998.64 998.36 997.92 997.56 997.48 997.68 997.80 997.92 998.24 998.24 998.44
Wind_Speed
18 19 17 18 17 14 11 14 17 15 10 13 12 14 14 13 13 13 9 11 14 9 11 12 12 15 19 21 17 12 13 16 16 17 19 20 20 19 18 20 20 20 24 24 21 21 21 22 22 22 21 21 21 20 21 23 22 21 22 20 19 18 17
13 14 17 16 19 17 11 15 13 12 14 14 12 11 9 12 12 8 9 13 11 13 11 12 15 14 15 18 21 18 15 14 14 14 15 17 18 20 23 20 21 23 22 22 21 21 23 23 24 24 23 22 20 20 21 23 23 24 21 20 20 18 18
10 14 16 19 21 22 21 14 9 14 14 17 13 9 14 12 13 9 10 12 11 11 9 9 16 17 17 17 18 20 20 16 16 15 16 17 17 17 19 21 18 17 15 18 19 22 23 24 23 24 23 23 21 21 21 23 24 24 23 20 19 16 18
10 11 10 13 12 18 22 22 18 12 13 13 14 13 9 9 11 10 12 13 11 10 8 12 15 18 18 19 17 19 21 20 18 16 16 16 16 15 18 18 14 13 17 19 22 21 23 24 24 23 25 23 24 23 22 22 22 21 21 21 19 19 19
9 13 11 15 15 15 17 17 17 13 12 10 12 12 14 11 10 10 8 10 10 10 10 12 8 11 18 18 17 15 17 19 21 20 18 17 17 16 16 15 16 18 19 19 18 19 20 22 22 22 23 24 24 22 22 23 23 23 23 22 21 18 17
13 12 10 15 18 17 15 14 15 15 14 15 17 15 13 15 12 7 9 12 7 10 14 12 14 9 7 15 19 16 16 17 15 15 18 17 17 19 19 19 17 13 16 16 17 16 20 20 21 23 23 22 23 24 22 23 23 22 23 22 20 19 18
12 13 14 13 15 19 20 16 17 19 17 15 13 13 13 13 14 12 11 10 10 8 4 3 11 12 8 10 15 17 16 18 18 15 17 17 15 18 19 19 20 21 19 18 17 18 19 21 22 24 23 22 23 24 23 22 23 24 23 22 20 19 18
17 19 16 16 15 16 19 17 14 15 21 18 14 14 13 13 14 13 12 13 9 6 6 4 9 8 8 7 7 9 12 15 17 18 17 16 16 15 16 17 17 14 13 13 14 15 17 19 20 23 21 22 22 22 22 22 24 25 23 21 20 20 19
10 13 12 13 13 12 12 15 17 19 17 23 22 16 13 14 14 15 14 14 13 9 10 4 3 8 9 8 9 11 10 6 10 15 13 13 15 15 16 15 13 12 12 13 11 14 18 20 20 20 21 21 21 22 22 22 22 23 22 20 21 21 21
12 13 15 13 12 13 12 14 17 20 24 22 20 21 14 13 10 15 12 13 12 14 8 12 7 5 6 3 7 7 7 7 9 9 14 15 13 11 14 14 17 16 14 13 14 18 19 21 20 19 19 21 21 21 23 22 21 21 22 21 21 21 21
12 5 10 9 10 9 9 13 20 23 22 23 20 15 17 17 11 14 14 11 6 13 16 12 12 9 12 9 3 2 6 8 5 3 5 4 10 13 17 14 10 9 11 17 22 20 21 22 21 20 21 21 20 19 21 21 20 21 21 20 20 21 21
18 19 17 16 14 12 13 15 14 15 19 24 23 17 16 13 10 15 13 10 13 13 8 11 11 14 15 11 10 11 12 8 9 7 5 4 1 6 7 8 12 13 13 15 17 19 22 20 20 19 20 20 20 20 21 20 20 20 18 20 21 20 20
18 20 21 19 16 16 17 17 18 19 15 19 24 19 19 18 15 15 13 15 15 16 11 8 7 7 7 10 8 6 7 6 8 3 1 6 8 9 10 12 13 13 15 13 16 19 19 20 20 20 19 19 17 17 18 19 20 21 20 20 21 21 20
15 16 17 16 17 17 16 17 18 18 17 17 16 22 19 20 20 18 15 15 18 17 11 1 13 9 3 7 6 1 1 7 7 4 2 8 7 10 12 11 9 10 14 16 16 17 18 20 19 20 18 18 19 19 19 19 18 19 19 19 19 20 21
14 15 16 16 18 18 20 19 19 19 18 16 14 14 18 21 23 22 21 20 16 14 13 7 8 10 7 7 8 6 4 2 0 6 7 8 11 11 10 4 4 10 9 12 14 14 17 17 19 18 17 18 19 20 19 20 19 19 20 19 21 21 20
11 12 13 16 17 20 21 21 20 20 19 20 18 15 14 16 18 22 23 19 16 13 14 15 7 11 11 8 7 6 4 7 9 8 9 7 5 9 7 7 7 9 6 10 12 16 18 19 19 18 16 18 19 19 19 20 20 19 20 20 21 19 19
13 11 13 15 16 15 19 21 21 20 19 19 18 19 19 18 17 18 17 17 13 14 13 9 9 12 11 10 5 8 10 9 9 9 12 10 7 6 6 9 11 8 8 5 12 15 15 17 17 20 19 18 18 19 19 19 19 20 20 21 19 18 19
11 12 13 11 10 16 15 10 17 19 20 21 23 21 21 19 18 15 15 15 16 17 10 8 8 10 12 10 8 7 8 9 11 12 10 9 9 9 10 9 9 7 7 7 9 10 15 15 18 19 19 19 18 19 19 19 19 18 18 19 19 19 18
12 11 11 12 18 15 10 11 12 14 19 22 23 23 23 22 20 22 21 18 11 5 6 6 9 11 15 14 14 12 10 12 13 14 14 11 8 4 9 10 11 9 9 11 11 13 11 13 16 16 17 18 17 17 17 18 18 17 18 18 18 19 18
10 11 10 12 12 8 12 14 15 19 18 16 18 23 25 24 22 16 13 16 17 7 9 8 7 10 14 16 13 13 11 12 11 11 10 13 10 10 10 12 12 11 11 10 11 10 12 12 15 16 17 18 19 19 19 19 19 19 18 17 18 19 18
12 11 12 14 9 13 14 15 9 7 7 11 11 11 15 19 13 11 7 5 8 6 8 10 10 10 12 13 12 9 13 15 14 13 14 13 13 14 14 15 14 12 12 13 13 13 12 13 15 17 18 18 19 18 19 18 19 20 19 18 18 18 19
10 12 11 9 10 11 11 5 2 2 7 9 7 6 9 10 10 3 3 4 3 6 8 11 13 12 10 11 9 8 17 17 17 17 15 15 15 15 15 16 16 14 13 13 14 13 13 13 16 15 18 18 18 18 19 19 20 20 21 20 19 18 19
11 13 11 10 10 9 5 6 8 9 7 9 9 4 6 4 9 1 4 2 4 6 8 10 11 8 10 12 4 14 17 19 18 18 17 17 17 16 16 17 18 16 14 14 15 16 15 14 15 17 17 20 20 19 19 20 21 21 21 20 20 20 21
12 11 12 11 8 6 3 4 7 9 10 8 4 11 6 3 9 8 5 4 6 7 6 8 8 7 9 8 10 17 18 17 18 17 19 19 19 19 18 18 17 16 15 15 16 16 16 14 15 18 19 18 18 18 20 20 21 21 21 20 20 20 18
13 14 12 11 10 5 6 7 8 7 7 5 4 10 3 5 5 3 4 6 6 7 6 5 5 4 8 12 16 17 18 19 19 19 18 18 18 19 19 18 16 15 15 15 15 16 13 12 15 17 18 18 18 18 18 18 20 22 20 18 18 17 17
13 13 13 13 10 3 6 6 9 6 6 6 7 4 6 8 5 5 5 5 6 7 6 6 6 9 12 14 15 16 17 18 18 19 20 20 20 19 21 18 16 15 15 14 16 15 13 14 15 16 16 15 15 14 16 20 21 20 17 16 18 17 18
10 10 11 9 12 4 10 10 4 5 7 3 1 5 8 6 5 5 5 5 6 7 6 7 9 10 12 14 15 16 17 17 19 20 21 20 20 20 20 17 15 14 13 14 14 14 12 13 14 15 18 15 14 15 18 18 18 16 16 17 18 17 17
11 10 11 6 4 5 6 8 5 6 4 5 4 5 6 10 9 5 6 5 6 8 8 9 10 10 12 14 15 16 16 18 19 20 20 20 20 20 20 15 14 15 13 13 14 12 12 11 12 14 15 12 12 15 17 13 13 13 15 16 15 16 16
6 6 5 5 8 7 8 7 7 5 3 3 3 5 5 6 7 9 8 8 9 10 10 10 10 10 11 13 14 15 17 18 18 19 20 21 20 20 18 13 12 14 14 13 11 10 12 11 10 12 11 12 12 14 12 11 9 12 14 16 16 16 17
8 12 12 11 9 10 10 9 8 9 7 6 4 5 6 6 7 7 9 11 11 11 11 10 9 9 11 13 14 16 16 16 17 18 20 21 19 20 15 10 12 13 13 8 5 13 10 8 10 8 9 12 13 12 12 11 12 12 14 15 15 15 15
7 4 4 7 9 10 10 10 9 6 4 4 4 6 7 8 7 8 10 11 11 12 12 10 10 11 10 12 12 14 14 15 16 18 19 20 20 17 12 11 11 9 10 4 4 8 5 7 11 11 12 13 11 11 11 14 14 12 14 14 14 14 15
8 9 12 12 12 12 12 7 7 5 5 7 9 8 9 9 8 8 9 11 12 10 10 10 9 10 10 10 11 12 13 13 14 15 17 19 18 13 11 11 10 6 7 6 5 4 6 9 10 6 11 9 12 12 14 15 14 13 13 14 14 14 15
8 11 9 11 15 13 2 5 8 7 8 10 11 11 11 11 11 8 8 10 11 10 10 10 9 10 10 9 10 12 13 13 13 13 15 17 16 10 10 11 10 8 7 6 5 4 7 7 7 12 3 9 12 12 13 13 12 13 13 14 13 14 13
4 4 8 12 9 8 8 11 10 12 12 12 13 12 12 11 10 9 9 9 9 10 10 8 8 9 10 10 11 13 12 12 15 16 15 16 15 11 8 7 9 8 8 5 4 7 7 7 7 5 6 9 1 12 12 11 13 13 14 14 13 13 12
8 10 11 10 10 12 12 12 13 12 12 11 13 12 11 10 10 10 9 10 9 9 8 6 7 8 9 11 12 13 12 13 14 15 16 15 13 13 9 8 9 10 10 9 7 8 6 5 5 5 6 5 4 1 7 9 12 12 13 11 10 11 11
9 9 11 11 10 11 12 13 12 12 10 10 11 12 11 10 9 9 9 8 9 8 8 8 6 5 9 10 11 12 13 13 14 16 15 17 12 12 9 9 8 8 8 9 9 8 7 7 7 7 6 7 5 1 3 7 10 11 12 11 9 9 10
10 11 11 12 12 11 9 11 12 9 8 9 10 10 10 10 10 9 8 6 7 7 7 7 8 5 9 11 10 11 12 13 12 16 18 16 13 12 11 10 10 9 7 8 7 6 8 8 8 6 6 5 4 3 1 5 9 10 10 10 9 9 9
Wind_Direction
204 203 204 211 231 231 197 204 214 223 223 237 246 263 268 268 249 238 220 211 216 242 233 226 228 223 214 219 219 210 220 220 199 194 187 194 196 183 174 180 183 198 206 199 194 184 182 181 182 184 183 184 185 182 182 185 185 182 182 183 180 181 182
225 232 199 219 219 243 243 211 213 215 230 244 242 250 235 239 253 243 233 227 207 203 224 196 209 221 223 210 214 210 215 216 200 194 194 192 196 182 180 180 188 187 194 201 196 186 185 184 183 184 183 185 184 184 182 183 186 186 183 181 181 180 182
220 226 233 210 215 217 242 249 174 210 193 215 223 248 237 232 227 238 220 239 246 201 214 193 203 208 213 217 208 212 210 208 204 199 200 198 193 193 170 180 186 193 193 208 198 189 188 185 184 184 183 183 183 185 185 185 185 185 182 182 181 181 183
253 230 205 239 220 217 229 243 262 229 232 216 216 217 250 252 251 228 225 222 234 222 213 210 214 204 208 213 209 209 210 207 209 211 202 198 193 194 178 173 169 179 189 206 205 201 192 186 185 185 183 183 184 185 184 186 187 185 183 182 179 182 184
228 237 210 224 223 215 199 226 229 226 237 238 233 213 221 227 239 243 249 220 222 233 217 220 225 196 202 208 213 208 210 209 208 212 210 198 193 193 177 165 172 179 185 197 213 216 202 190 185 185 184 185 185 184 185 186 184 186 186 185 182 183 183
217 238 218 221 233 233 228 222 233 223 215 224 215 225 205 222 229 238 242 248 254 211 196 204 224 216 200 203 209 212 214 221 212 201 206 204 194 190 186 176 176 187 196 197 201 202 212 197 188 187 186 186 184 185 186 186 186 187 187 186 184 182 184
252 223 227 231 242 243 247 231 223 227 229 227 226 229 210 211 227 240 249 260 236 36 48 189 213 221 193 205 200 207 210 217 224 213 201 201 204 194 191 177 175 188 195 192 190 194 211 204 192 188 187 186 187 188 186 185 186 188 188 187 184 181 183
280 288 296 289 294 275 243 239 263 259 227 221 238 233 231 234 206 214 222 228 250 137 147 177 228 224 201 202 181 223 212 201 213 214 204 193 195 198 190 178 178 183 187 180 185 202 208 208 193 190 189 187 189 188 187 186 189 189 189 188 184 183 183
251 257 252 246 232 244 242 235 218 228 248 236 226 239 236 239 237 238 212 221 214 153 131 67 53 169 210 215 198 200 226 197 211 201 204 197 189 193 179 175 177 191 186 169 190 197 206 204 195 192 190 190 189 188 188 188 190 188 188 187 186 184 187
225 218 215 213 221 221 236 248 254 241 236 234 224 224 229 241 249 277 252 226 215 231 179 150 192 274 286 216 186 186 229 239 219 203 195 193 195 167 161 189 186 182 174 186 193 196 199 197 196 191 192 192 191 189 190 190 188 186 187 188 187 185 188
256 266 353 321 320 305 292 260 240 228 224 238 242 232 231 226 229 246 251 265 279 238 219 218 201 211 228 216 262 262 191 195 246 267 346 200 187 170 171 186 193 181 188 192 194 192 191 196 195 191 193 193 192 189 191 190 187 186 186 187 186 186 188
260 280 286 300 303 289 287 280 289 276 255 242 224 230 239 248 237 237 238 247 251 278 253 161 203 207 206 203 201 199 196 184 189 140 63 349 126 134 140 166 180 194 200 199 187 188 192 195 195 193 195 195 194 189 190 190 188 186 185 186 186 188 188
257 261 266 266 279 290 290 291 290 278 287 298 243 230 241 243 234 234 217 228 237 244 256 171 67 37 15 41 33 38 23 96 96 82 121 201 187 173 179 165 199 194 175 202 191 191 194 195 196 196 193 195 197 194 193 192 189 187 183 184 185 186 187
269 268 267 268 270 270 269 269 271 270 272 285 271 231 236 242 244 253 245 240 237 231 239 39 6 337 358 4 359 74 37 49 39 44 197 197 187 183 178 169 182 195 192 194 187 189 194 195 195 196 194 193 195 194 193 193 194 187 182 184 184 186 188
259 258 261 268 269 262 261 259 259 264 266 257 256 259 235 238 245 233 238 241 238 248 267 254 26 309 303 305 296 8 42 238 248 24 359 350 358 1 10 60 184 174 199 199 190 192 194 200 198 198 195 194 195 195 193 193 193 188 184 182 186 187 187
258 257 264 262 263 261 260 255 252 249 251 244 227 232 238 245 245 241 237 230 237 250 255 255 331 292 287 283 317 287 19 15 355 317 320 342 349 324 341 338 327 329 231 201 202 195 199 202 202 202 198 195 195 197 193 194 192 191 187 185 187 186 184
250 254 257 251 249 262 252 243 241 240 238 238 238 239 240 247 253 237 231 233 241 256 248 299 295 277 283 290 310 333 333 330 321 302 304 314 314 292 305 309 321 303 304 270 208 205 208 204 204 203 201 199 197 197 194 193 191 192 189 187 184 184 185
260 258 251 254 267 248 247 241 237 229 235 232 236 243 241 241 237 242 242 235 229 243 261 315 306 311 307 320 318 315 310 308 308 302 295 308 314 305 317 311 281 288 300 286 295 242 212 212 210 208 203 202 199 200 196 191 192 192 189 186 185 185 186
254 251 259 256 243 246 269 264 253 246 236 234 237 241 240 245 242 236 239 245 238 262 329 326 316 312 311 312 315 314 315 305 304 306 295 263 263 298 280 280 294 317 308 300 288 292 274 220 223 212 206 204 199 199 198 193 193 190 190 187 184 184 185
250 252 244 248 243 265 257 258 253 246 255 260 257 241 237 239 245 251 247 253 248 264 315 325 319 315 312 309 306 304 313 12 3 351 349 338 328 314 304 303 300 291 295 292 283 271 271 267 227 215 212 202 200 197 197 194 192 190 190 187 184 184 185
237 238 243 246 280 268 253 246 259 349 280 265 259 265 254 228 218 217 235 255 258 285 325 327 331 325 312 298 294 302 20 5 354 349 337 325 315 308 302 299 300 306 299 286 280 273 259 253 255 216 211 203 200 196 196 193 190 190 188 187 185 183 187
235 247 246 242 240 245 237 91 58 339 343 321 296 232 285 264 218 190 236 252 342 335 339 331 332 319 290 265 250 23 360 356 342 341 327 323 315 308 304 299 294 293 291 289 283 276 262 249 247 235 209 204 197 195 194 192 190 190 188 187 186 183 186
240 235 241 240 247 246 38 30 16 0 13 339 307 267 233 6 321 68 325 347 20 355 345 330 314 285 254 244 213 10 348 341 340 331 328 320 318 313 306 299 296 297 300 300 299 292 276 249 238 236 214 202 196 193 193 193 189 190 189 186 186 183 185
241 245 236 238 227 254 127 7 352 352 331 348 330 231 219 22 336 338 317 344 12 10 340 315 294 279 265 285 342 340 336 331 330 327 324 323 317 314 305 297 293 300 302 298 287 277 266 248 237 229 213 201 197 190 192 193 188 191 190 186 186 183 182
230 238 253 248 251 230 29 331 337 349 341 344 255 240 58 11 331 349 350 355 6 350 333 328 305 312 306 311 315 324 327 330 327 327 322 317 315 308 304 294 303 300 294 286 280 271 262 248 235 226 210 199 193 190 191 193 190 192 190 181 180 178 180
224 227 240 242 248 62 334 332 328 1 318 241 238 30 303 302 321 13 358 7 6 341 331 328 319 314 310 310 316 322 328 326 322 321 322 321 320 316 306 302 298 291 287 288 283 273 254 242 229 220 209 195 188 182 188 195 194 191 181 174 178 178 179
235 240 248 247 251 74 347 348 269 44 284 36 287 315 324 308 327 341 344 345 353 338 331 328 319 312 317 323 324 326 324 326 325 323 321 322 320 314 306 295 291 286 286 285 277 268 253 237 216 214 207 188 179 181 192 197 192 182 176 174 176 177 178
231 221 228 244 5 330 343 8 343 356 0 342 332 315 307 337 332 338 318 320 333 328 324 325 320 323 324 329 331 328 326 328 324 321 320 318 316 312 304 299 299 298 294 283 273 256 248 235 209 214 205 174 177 182 192 191 189 177 170 169 172 174 177
279 275 295 346 290 328 320 334 342 315 285 273 306 298 298 301 328 333 320 317 324 323 323 318 318 328 333 328 328 330 326 324 321 318 315 311 310 307 299 296 304 308 288 277 275 259 240 222 202 210 196 169 170 182 184 180 183 171 163 167 172 175 177
304 291 277 307 307 301 308 315 313 310 284 280 277 292 300 288 300 316 312 315 316 317 315 319 322 333 327 328 328 331 326 321 316 317 315 316 315 309 307 313 324 316 297 250 323 318 245 192 197 198 187 177 176 179 178 181 184 167 165 169 173 175 175
323 270 78 350 332 324 315 309 301 294 305 298 295 290 297 302 293 293 297 301 309 306 310 316 323 329 329 329 328 328 324 321 314 313 317 316 314 304 325 326 326 324 335 350 326 346 350 187 196 191 196 187 177 174 175 181 184 167 168 169 172 173 173
278 284 320 327 322 312 296 310 353 341 334 305 284 284 286 285 284 279 298 300 291 304 305 319 324 327 333 339 333 325 320 315 309 309 311 314 310 309 328 332 344 332 352 11 12 350 20 10 358 220 185 177 173 173 177 181 179 166 169 171 172 173 171
296 297 293 335 324 295 251 29 339 337 316 311 304 292 289 286 285 278 265 274 292 299 304 317 325 324 331 338 328 317 316 315 312 309 311 310 303 318 344 347 355 15 360 14 20 24 20 12 29 19 35 188 184 188 177 184 166 167 173 174 174 171 170
283 339 346 342 326 310 306 310 323 318 316 308 303 299 287 282 277 283 279 281 292 296 296 312 326 326 326 328 324 321 318 315 316 316 316 318 316 340 349 337 354 7 11 16 35 34 22 21 34 44 38 22 180 181 183 182 166 174 174 177 175 171 174
306 326 329 321 305 292 289 308 316 312 312 308 301 301 297 289 286 281 280 280 287 290 289 325 322 322 319 317 322 320 322 323 319 321 329 325 322 329 347 354 10 15 14 20 39 44 39 25 47 51 38 52 46 26 210 178 173 176 176 176 174 173 176
306 318 316 316 307 302 307 309 308 308 307 310 311 305 302 296 281 272 269 275 285 294 303 314 316 330 310 313 317 314 318 325 331 332 334 329 332 331 355 10 14 22 25 15 27 47 51 49 42 43 52 40 19 346 192 179 182 176 176 176 179 172 176
328 325 324 320 309 298 305 313 310 301 311 311 302 298 302 312 301 282 263 271 276 281 285 285 293 314 313 307 312 321 325 330 336 337 337 330 341 346 343 11 19 4 17 19 20 51 62 69 67 60 58 37 28 18 215 193 188 179 176 176 178 174 171